x

North Equatorial One- 470 Nm East Of Martinique (41040) Wave Buoy

12:50pm - Mon 27th Apr 2015 All times are UTC.

  • Sig Wave height 4.6ft
  • Swell Direction
  • Peak Period 8s
  • Average Period 5s
  • Wind
    16mph, 20mph gusts
  • Sea Temp 80°f
  • Air Temp 78°f
  • Sea Pressure 1016.9mb

More Historic Weather Station data

Upgrade to MSW Pro to gain access to the past 30 days of data for over 8000 Wavebouys and Weather Stations around the globe.

Join Pro

Comparision Forecast

View Surf forecast
   
Mon 04/27 12:50pm 4.5ft 8s 5s 16 20 mph 1016.9mb 80f 78f
11:50am 4.5ft 7s 5s 16 18 mph 1016.7mb 80f 78f
10:50am 4.5ft 8s 5s 16 20 mph 1016.1mb 80f 78f
9:50am 4.5ft 8s 5s 16 20 mph 1015.5mb 80f 78f
8:50am 4.5ft 11s 5s 16 18 mph 1015.2mb 80f 78f
7:50am 4.5ft 7s 6s 16 18 mph 1014.9mb 80f 78f
6:50am 4.5ft 7s 5s 13 18 mph 1014.8mb 80f 78f
5:50am 4.5ft 12s 6s 16 18 mph 1014.8mb 80f 78f
4:50am 4.5ft 11s 5s 13 16 mph 1015.4mb 80f 78f
3:50am 4.5ft 8s 6s 16 18 mph 1016.2mb 80f 78f
2:50am 4.5ft 12s 5s 13 16 mph 1016.9mb 80f 78f
1:50am 4.5ft 8s 6s 13 16 mph 1017.2mb 80f 78f
12:50am 4.5ft 8s 6s 13 16 mph 1017.3mb 80f 79f
Sun 04/26 11:50pm 4.5ft 12s 6s 11 13 mph 1016.9mb 80f 79f
10:50pm 4.5ft 8s 6s 13 16 mph 1016.4mb 80f 79f
9:50pm 4.5ft 8s 6s 13 16 mph 1015.8mb 80f 79f
8:50pm 4.5ft 8s 6s 16 18 mph 1015.5mb 80f 79f
7:50pm 4.5ft 8s 6s 13 16 mph 1015.4mb 80f 79f
6:50pm 4.5ft 11s 6s 13 16 mph 1015.6mb 80f 79f
5:50pm 4.5ft 13s 6s 13
mph
1016mb 80f 79f
4:50pm 4.5ft 12s 6s 13 16 mph 1016.7mb 80f 79f
3:50pm 4.5ft 12s 6s 13 18 mph 1017.3mb 80f 79f
2:50pm 5ft 13s 6s 13 16 mph 1017.7mb 80f 79f
1:50pm 4.5ft 12s 6s 13 18 mph 1017.5mb 80f 78f
12:50pm 4.5ft 12s 6s 13 16 mph 1017.7mb 80f 78f
11:50am 4.5ft 8s 6s 13 16 mph 1017.6mb 80f 78f
10:50am 5ft 11s 6s 13 16 mph 1017.5mb 80f 78f
9:50am 5ft 13s 6s 13 16 mph 1016.8mb 80f 78f
8:50am 4.5ft 14s 6s 13 16 mph 1016.3mb 80f 78f
7:50am 5ft 12s 6s 13 16 mph 1015.5mb 80f 78f
6:50am 5ft 14s 6s 13 16 mph 1015.5mb 80f 78f
5:50am 5ft 13s 6s 13 16 mph 1015.2mb 80f 78f
4:50am 5ft 14s 6s 13 16 mph 1015.7mb 80f 78f
3:50am 5ft 7s 6s 13 16 mph 1016.6mb 80f 78f
2:50am 5ft 14s 6s 11 16 mph 1017.4mb 80f 78f
1:50am 5ft 14s 6s 13 16 mph 1017.5mb 80f 78f
12:50am 5.5ft 14s 7s 11 13 mph 1017.1mb 80f 78f
Sat 04/25 11:50pm 5ft 14s 6s 13 16 mph 1016.9mb 80f 79f
10:50pm 5.5ft 14s 7s 13 16 mph 1016.3mb 80f 78f
9:50pm 6ft 14s 7s 13 16 mph 1016.1mb 80f 79f
8:50pm 6ft 14s 7s 11 13 mph 1015.6mb 80f 79f
7:50pm 5.5ft 14s 6s 13 16 mph 1015.5mb 80f 79f
6:50pm 5.5ft 14s 7s 11 13 mph 1016mb 80f 79f
5:50pm 6ft 14s 7s 13 16 mph 1015.8mb 80f 79f
4:50pm 5.5ft 14s 6s 13 16 mph 1016.4mb 80f 79f
3:50pm 6ft 14s 7s 16 18 mph 1017.2mb 80f 79f
2:50pm 6ft 14s 7s 13 16 mph 1018mb 80f 79f
1:50pm 6ft 15s 7s 16 18 mph 1018.6mb 80f 79f
12:50pm 6ft 15s 7s 13 16 mph 1018.7mb 80f 79f
11:50am 6ft 15s 7s 13 16 mph 1018.7mb 80f 79f
10:50am 7ft 15s 7s 13 16 mph 1018.4mb 79f 79f
9:50am 7ft 15s 7s 16 18 mph 1017.5mb 79f 78f
8:50am 7ft 14s 7s 13 16 mph 1017.1mb 79f 78f
7:50am 7ft 15s 8s 13 18 mph 1016mb 79f 78f
6:50am 6.5ft 14s 7s 16 18 mph 1015.3mb 79f 78f
5:50am 7ft 14s 8s 13 16 mph 1015.4mb 79f 78f
4:50am 6.5ft 15s 7s 13 18 mph 1015.8mb 79f 78f
3:50am 7ft 15s 7s 13 16 mph 1016.5mb 79f 78f
2:50am 8ft 15s 8s 13 18 mph 1017mb 80f 78f
1:50am 7ft 15s 7s 13 16 mph 1017.3mb 80f 78f
12:50am 6.5ft 14s 7s 13 16 mph 1016.7mb 80f 78f
Fri 04/24 11:50pm 7ft 15s 7s 13 18 mph 1016mb 80f 78f
10:50pm 7ft 15s 7s 16 18 mph 1015.6mb 80f 78f
9:50pm 7.5ft 15s 7s 16 18 mph 1015.2mb 80f 78f
8:50pm 8.5ft 15s 8s 16 18 mph 1014.7mb 80f 79f
7:50pm 8ft 16s 8s 18 20 mph 1014.6mb 80f 79f
6:50pm 8ft 16s 7s 18 20 mph 1014.9mb 80f 79f
5:50pm 8.5ft 15s 8s 18 20 mph 1015.1mb 80f 79f
4:50pm 8ft 15s 8s 16 20 mph 1015.8mb 80f 78f
3:50pm 7.5ft 15s 7s 16 18 mph 1016.8mb 80f 78f
2:50pm 8ft 16s 8s 16 18 mph 1017.4mb 80f 78f
1:50pm 8ft 15s 8s 16 20 mph 1017.5mb 80f 78f
12:50pm 8ft 16s 8s 16 20 mph 1017.8mb 80f 78f
11:50am 7.5ft 15s 8s 13 18 mph 1017.8mb 79f 78f
10:50am 8ft 16s 8s 16 18 mph 1017.2mb 79f 78f
9:50am 8ft 16s 8s 16 20 mph 1016.5mb 79f 78f
8:50am 8.5ft 15s 8s 16 20 mph 1016.1mb 79f 78f
7:50am 9ft 15s 9s 16 18 mph 1015.9mb 79f 78f
6:50am 9.5ft 16s 9s 16 18 mph 1015.7mb 79f 78f
5:50am 10ft 16s 9s 13 16 mph 1016mb 79f 78f
4:50am 8.5ft 15s 8s 16 18 mph 1016.3mb 79f 78f
3:50am 9ft 16s 8s 18 20 mph 1016.5mb 79f 78f
2:50am 10ft 16s 9s 16 18 mph 1017.1mb 79f 78f
1:50am 9ft 16s 8s 16 18 mph 1017.2mb 79f 78f
12:50am 9ft 15s 9s 13 18 mph 1016.9mb 80f 78f
Thu 04/23 11:50pm 8ft 15s 8s 13 18 mph 1016.4mb 80f 78f
10:50pm 8ft 16s 8s 13 16 mph 1015.6mb 80f 78f
9:50pm 9.5ft 16s 8s 13 18 mph 1015.3mb 80f 78f
8:50pm 8ft 14s 8s 16 18 mph 1014.9mb 80f 78f
7:50pm 8.5ft 16s 8s 13 16 mph 1015mb 80f 79f
6:50pm 8ft 16s 8s 16 18 mph 1015.1mb 80f 79f
5:50pm 7ft 17s 7s 16 18 mph 1015.2mb 80f 78f
4:50pm 7ft 16s 7s 16 20 mph 1015.9mb 80f 78f
3:50pm 7ft 17s 7s 16 18 mph 1016.7mb 80f 78f
2:50pm 6ft 7s 6s 16 18 mph 1017.1mb 80f 78f
1:50pm 6.5ft 7s 6s 13 16 mph 1017.6mb 80f 78f